Weather History for Laramie, WY

Change the Weather History Date:

Friday, March 8, 2013

  Actual Average Record
Temperature  
Mean Temperature 37 °F 29 °F  
Max Temperature 52 °F 41 °F 61 °F (1986)
Min Temperature 22 °F 17 °F -21 °F (1998)
Degree Days  
Heating Degree Days 28 36  
Month to date heating degree days 253 296  
Since 1 July heating degree days 6157 6472  
Cooling Degree Days 0 0  
Month to date cooling degree days 0 0  
Year to date cooling degree days 0 0  
Moisture  
Dew Point 21 °F    
Average Humidity 57    
Maximum Humidity 92    
Minimum Humidity 22    
Precipitation  
Precipitation 0.00 in 0.02 in 0.54 in (1949)
Month to date precipitation T 0.13  
Year to date precipitation 0.57 0.74  
Sea Level Pressure  
Sea Level Pressure 29.75 in    
Wind  
Wind Speed 7 mph (SSE)    
Max Wind Speed 17 mph    
Max Gust Speed 22 mph    
Visibility 10 miles    
Events      
T = Trace of Precipitation, MM = Missing Value Source: NWS Daily Summary

Daily Weather History Graph

Daily Weather History Graph

Search for Another Location

Airport:

Trip Planner

Search our weather history database for the weather conditions in past years. The results will help you decide how hot, cold, wet, or windy it might be!

Date:

Astronomy

Mar. 08, 2013 Rise Set
Actual Time 6:25 AM MST 6:01 PM MST
Civil Twilight 5:57 AM MST 6:29 PM MST
Nautical Twilight 5:25 AM MST 7:01 PM MST
Astronomical Twilight 4:53 AM MST 7:33 PM MST
Moon 4:13 AM MST (3/8) 2:58 PM MST (3/8)
Length of Visible Light 12h 31m
Length of Day
11h 36m
Waning Crescent, 11% of the Moon is Illuminated
Mar 8
Waning Crescent
Mar 11
New
Mar 19
First Quarter
Mar 27
Full
Apr 2
Last Quarter

Hourly Weather History & Observations

Time (MST) Temp. Windchill Dew Point Humidity Pressure Visibility Wind Dir Wind Speed Gust Speed Precip Events Conditions
12:53 AM 30.0 °F 21.7 °F 21.0 °F 69% 29.85 in 10.0 mi South 9.2 mph - N/A   Clear
1:53 AM 28.0 °F 18.6 °F 19.9 °F 72% 29.84 in 10.0 mi South 10.4 mph - N/A   Clear
2:53 AM 24.1 °F 15.2 °F 18.0 °F 77% 29.84 in 10.0 mi SW 8.1 mph - N/A   Partly Cloudy
3:53 AM 26.1 °F 20.5 °F 17.1 °F 69% 29.81 in 10.0 mi WSW 4.6 mph - N/A   Clear
4:53 AM 24.1 °F 14.4 °F 16.0 °F 71% 29.85 in 10.0 mi WSW 9.2 mph - N/A   Clear
5:53 AM 28.9 °F 18.6 °F 21.9 °F 75% 29.86 in 10.0 mi South 12.7 mph - N/A   Clear
6:53 AM 26.1 °F 18.4 °F 18.0 °F 71% 29.88 in 10.0 mi West 6.9 mph - N/A   Clear
7:53 AM 28.0 °F - 19.9 °F 72% 29.90 in 10.0 mi Calm Calm - N/A   Clear
8:53 AM 33.1 °F 30.0 °F 21.0 °F 61% 29.87 in 10.0 mi WSW 3.5 mph - N/A   Clear
9:53 AM 39.0 °F 33.4 °F 21.9 °F 50% 29.83 in - NE 8.1 mph - N/A   Scattered Clouds
10:53 AM 46.0 °F 43.9 °F 16.0 °F 30% 29.76 in 10.0 mi SSE 4.6 mph - N/A   Clear
11:53 AM 48.0 °F - 14.0 °F 26% 29.72 in 10.0 mi Calm Calm - N/A   Clear
12:53 PM 48.9 °F - 14.0 °F 25% 29.66 in 10.0 mi Calm Calm - N/A   Clear
1:53 PM 50.0 °F - 14.0 °F 24% 29.65 in 10.0 mi East 4.6 mph - N/A   Clear
2:53 PM 50.0 °F - 19.9 °F 31% 29.65 in 10.0 mi East 10.4 mph - N/A   Clear
3:53 PM 46.9 °F - 19.0 °F 33% 29.65 in 10.0 mi East 10.4 mph - N/A   Scattered Clouds
4:53 PM 42.1 °F 36.6 °F 24.1 °F 49% 29.70 in 10.0 mi SSE 9.2 mph - N/A   Overcast
5:53 PM 39.9 °F 35.8 °F 25.0 °F 55% 29.68 in 10.0 mi North 5.8 mph - N/A   Overcast
6:53 PM 36.0 °F 28.5 °F 26.1 °F 67% 29.71 in 10.0 mi East 10.4 mph - N/A   Clear
7:53 PM 34.0 °F 23.8 °F 26.1 °F 73% 29.71 in 10.0 mi SSE 16.1 mph - N/A   Clear
8:53 PM 30.9 °F 21.2 °F 26.1 °F 82% 29.69 in 10.0 mi SSE 12.7 mph - N/A   Mostly Cloudy
9:53 PM 30.0 °F 22.4 °F 26.1 °F 85% 29.64 in 10.0 mi ESE 8.1 mph - N/A   Mostly Cloudy
10:53 PM 26.1 °F 20.5 °F 24.1 °F 92% 29.62 in 10.0 mi ESE 4.6 mph - N/A   Mostly Cloudy
11:53 PM 28.0 °F - 26.1 °F 92% 29.58 in 10.0 mi Calm Calm - N/A   Overcast